| time (UTC) | temp C | wind direction | speed KPH | gust KPH | rain 1hr cm | rain 24hr cm | rain mn cm | humidity % | barometer mb |
| 20260505163554 | 23 | 19 | 3.2 | 4.8 | 0.00 | 0.00 | 0.00 | 50 | 1008.2 |
| 20260505163051 | 23 | 237 | 0.0 | 9.7 | 0.00 | 0.00 | 0.00 | 52 | 1008.1 |
| 20260505162549 | 23 | 198 | 3.2 | 9.7 | 0.00 | 0.00 | 0.00 | 52 | 1008.4 |
| 20260505162047 | 23 | 213 | 1.6 | 3.2 | 0.00 | 0.00 | 0.00 | 52 | 1008.4 |
| 20260505161543 | 23 | 293 | 1.6 | 3.2 | 0.00 | 0.00 | 0.00 | 53 | 1008.7 |
| 20260505161041 | 23 | 277 | 1.6 | 9.7 | 0.00 | 0.00 | 0.00 | 53 | 1008.6 |
| 20260505160538 | 23 | 298 | 3.2 | 9.7 | 0.00 | 0.00 | 0.00 | 52 | 1008.8 |
| 20260505153015 | 22 | 152 | 4.8 | 11.3 | 0.00 | 0.00 | 0.00 | 55 | 1008.6 |
| 20260505152512 | 21 | 177 | 1.6 | 6.4 | 0.00 | 0.00 | 0.00 | 57 | 1008.4 |
| 20260505152007 | 21 | 221 | 8.0 | 12.9 | 0.00 | 0.00 | 0.00 | 57 | 1008.4 |
| 20260505151503 | 21 | 61 | 1.6 | 3.2 | 0.00 | 0.00 | 0.00 | 59 | 1008.6 |
| 20260505151000 | 21 | 251 | 1.6 | 3.2 | 0.00 | 0.00 | 0.00 | 61 | 1008.4 |
| 20260505150456 | 21 | 247 | 0.0 | 3.2 | 0.00 | 0.00 | 0.00 | 63 | 1008.3 |
| 20260505140427 | 19 | 170 | 0.0 | 0.0 | 0.00 | 0.00 | 0.00 | 70 | 1007.8 |
| 20260505124840 | 16 | 355 | 0.0 | 0.0 | 0.00 | 0.00 | 0.00 | 79 | 1008.1 |
| 20260505124337 | 16 | 164 | 0.0 | 3.2 | 0.00 | 0.00 | 0.00 | 80 | 1007.8 |
| 20260505123833 | 16 | 167 | 0.0 | 3.2 | 0.00 | 0.00 | 0.00 | 80 | 1007.9 |
| 20260505123330 | 15 | 205 | 0.0 | 1.6 | 0.00 | 0.00 | 0.00 | 80 | 1007.8 |
| 20260505122826 | 15 | 194 | 1.6 | 3.2 | 0.00 | 0.00 | 0.00 | 81 | 1007.9 |
| 20260505122323 | 15 | 186 | 0.0 | 0.0 | 0.00 | 0.00 | 0.00 | 81 | 1007.7 |
| 20260505121820 | 15 | 196 | 0.0 | 1.6 | 0.00 | 0.00 | 0.00 | 82 | 1007.5 |
| 20260505121317 | 15 | 193 | 0.0 | 0.0 | 0.00 | 0.00 | 0.00 | 82 | 1007.3 |
| 20260505120813 | 15 | 178 | 0.0 | 1.6 | 0.00 | 0.00 | 0.00 | 83 | 1006.8 |
| 20260505120309 | 15 | 204 | 0.0 | 1.6 | 0.00 | 0.00 | 0.00 | 83 | 1006.7 |
| 20260505115808 | 15 | 244 | 1.6 | 1.6 | 0.00 | 0.00 | 0.00 | 82 | 1007.0 |
| 20260505115306 | 15 | 212 | 0.0 | 3.2 | 0.00 | 0.00 | 0.00 | 81 | 1006.7 |
| 20260505114803 | 15 | 184 | 0.0 | 1.6 | 0.00 | 0.00 | 0.00 | 81 | 1007.0 |
| 20260505114259 | 15 | 183 | 0.0 | 0.0 | 0.00 | 0.00 | 0.00 | 81 | 1006.8 |
| 20260505113756 | 15 | 183 | 0.0 | 1.6 | 0.00 | 0.00 | 0.00 | 81 | 1007.0 |
| 20260505113252 | 15 | 180 | 0.0 | 3.2 | 0.00 | 0.00 | 0.00 | 81 | 1006.9 |
| 20260505112748 | 15 | 150 | 0.0 | 1.6 | 0.00 | 0.00 | 0.00 | 80 | 1007.0 |
| 20260505112246 | 15 | 140 | 0.0 | 0.0 | 0.00 | 0.00 | 0.00 | 80 | 1007.0 |
| 20260505111746 | 15 | 216 | 1.6 | 3.2 | 0.00 | 0.00 | 0.00 | 80 | 1007.1 |
| 20260505111242 | 15 | 182 | 0.0 | 1.6 | 0.00 | 0.00 | 0.00 | 79 | 1007.5 |
| 20260505110738 | 15 | 201 | 0.0 | 1.6 | 0.00 | 0.00 | 0.00 | 78 | 1007.4 |
| 20260505110236 | 15 | 155 | 0.0 | 3.2 | 0.00 | 0.00 | 0.00 | 77 | 1007.5 |
| 20260505102212 | 16 | 250 | 0.0 | 3.2 | 0.00 | 0.00 | 0.00 | 71 | 1007.2 |
| 20260505101710 | 16 | 158 | 0.0 | 1.6 | 0.00 | 0.00 | 0.00 | 71 | 1007.2 |
| 20260505101206 | 16 | 191 | 0.0 | 1.6 | 0.00 | 0.00 | 0.00 | 71 | 1007.3 |
| 20260505100702 | 16 | 220 | 0.0 | 1.6 | 0.00 | 0.00 | 0.00 | 72 | 1007.5 |
| 20260505100159 | 16 | 216 | 0.0 | 6.4 | 0.00 | 0.00 | 0.00 | 73 | 1007.2 |
| 20260505095655 | 16 | 160 | 0.0 | 3.2 | 0.00 | 0.00 | 0.00 | 73 | 1007.5 |
| 20260505095153 | 16 | 221 | 0.0 | 1.6 | 0.00 | 0.00 | 0.00 | 73 | 1007.3 |
| 20260505094649 | 16 | 188 | 0.0 | 0.0 | 0.00 | 0.00 | 0.00 | 73 | 1007.0 |
| 20260505094145 | 16 | 181 | 0.0 | 0.0 | 0.00 | 0.00 | 0.00 | 73 | 1007.3 |
| 20260505093642 | 16 | 180 | 0.0 | 1.6 | 0.00 | 0.00 | 0.00 | 72 | 1007.2 |
| 20260505093139 | 16 | 179 | 0.0 | 0.0 | 0.00 | 0.00 | 0.00 | 72 | 1007.1 |
| 20260505092636 | 16 | 216 | 0.0 | 1.6 | 0.00 | 0.00 | 0.00 | 71 | 1006.9 |
| 20260505092135 | 16 | 166 | 0.0 | 0.0 | 0.00 | 0.00 | 0.00 | 69 | 1006.9 |
| 20260505091631 | 16 | 218 | 3.2 | 14.5 | 0.00 | 0.00 | 0.00 | 68 | 1006.9 |
| 20260505091129 | 16 | 157 | 0.0 | 0.0 | 0.00 | 0.00 | 0.00 | 69 | 1006.9 |
| 20260505090626 | 16 | 245 | 0.0 | 1.6 | 0.00 | 0.00 | 0.00 | 68 | 1006.9 |
| 20260505090125 | 16 | 207 | 0.0 | 4.8 | 0.00 | 0.00 | 0.00 | 68 | 1006.9 |
| 20260505085622 | 16 | 233 | 0.0 | 4.8 | 0.00 | 0.00 | 0.00 | 68 | 1006.9 |
| 20260505085120 | 17 | 181 | 0.0 | 1.6 | 0.00 | 0.00 | 0.00 | 68 | 1006.8 |
| 20260505084617 | 17 | 230 | 0.0 | 1.6 | 0.00 | 0.00 | 0.00 | 67 | 1006.7 |
| 20260505084116 | 17 | 213 | 0.0 | 6.4 | 0.00 | 0.00 | 0.00 | 66 | 1006.5 |
| 20260505083613 | 17 | 231 | 0.0 | 1.6 | 0.00 | 0.00 | 0.00 | 66 | 1006.5 |
| 20260505083109 | 17 | 243 | 0.0 | 1.6 | 0.00 | 0.00 | 0.00 | 65 | 1006.5 |
| 20260505082605 | 17 | 144 | 0.0 | 4.8 | 0.00 | 0.00 | 0.00 | 65 | 1006.3 |
| 20260505082102 | 17 | 247 | 1.6 | 3.2 | 0.00 | 0.00 | 0.00 | 66 | 1006.2 |
| 20260505081559 | 17 | 219 | 1.6 | 4.8 | 0.00 | 0.00 | 0.00 | 66 | 1006.0 |
| 20260505081056 | 17 | 215 | 1.6 | 1.6 | 0.00 | 0.00 | 0.00 | 66 | 1006.0 |
| 20260505080552 | 17 | 260 | 3.2 | 4.8 | 0.00 | 0.00 | 0.00 | 65 | 1005.9 |
| 20260505080049 | 17 | 217 | 3.2 | 3.2 | 0.00 | 0.00 | 0.00 | 68 | 1005.7 |
| 20260505075544 | 17 | 239 | 0.0 | 1.6 | 0.00 | 0.00 | 0.00 | 67 | 1005.5 |
| 20260505075042 | 17 | 196 | 0.0 | 3.2 | 0.00 | 0.00 | 0.00 | 67 | 1005.6 |
| 20260505074538 | 17 | 202 | 0.0 | 4.8 | 0.00 | 0.00 | 0.00 | 67 | 1005.5 |
| 20260505074036 | 17 | 158 | 0.0 | 0.0 | 0.00 | 0.00 | 0.00 | 69 | 1005.7 |
| 20260505073533 | 17 | 186 | 0.0 | 1.6 | 0.00 | 0.00 | 0.00 | 69 | 1005.4 |
| 20260505073032 | 17 | 157 | 0.0 | 1.6 | 0.00 | 0.00 | 0.00 | 69 | 1005.6 |
| 20260505072527 | 17 | 140 | 0.0 | 1.6 | 0.00 | 0.00 | 0.00 | 68 | 1005.5 |
| 20260505072023 | 17 | 179 | 0.0 | 1.6 | 0.00 | 0.00 | 0.00 | 70 | 1005.5 |
| 20260505071519 | 17 | 230 | 1.6 | 1.6 | 0.00 | 0.00 | 0.00 | 70 | 1005.5 |
| 20260505071017 | 17 | 185 | 0.0 | 0.0 | 0.00 | 0.00 | 0.00 | 70 | 1005.4 |
| 20260505070514 | 17 | 147 | 0.0 | 0.0 | 0.00 | 0.00 | 0.00 | 71 | 1005.6 |
| 20260505070010 | 16 | 126 | 0.0 | 1.6 | 0.00 | 0.00 | 0.00 | 70 | 1005.5 |
| 20260505065506 | 16 | 201 | 0.0 | 3.2 | 0.00 | 0.00 | 0.00 | 72 | 1005.3 |
| 20260505065003 | 16 | 152 | 0.0 | 1.6 | 0.00 | 0.00 | 0.00 | 73 | 1005.5 |
| 20260505064459 | 16 | 210 | 0.0 | 0.0 | 0.00 | 0.00 | 0.00 | 73 | 1005.4 |
| 20260505063958 | 16 | 198 | 0.0 | 0.0 | 0.00 | 0.00 | 0.00 | 73 | 1005.3 |
| 20260505063455 | 16 | 183 | 0.0 | 0.0 | 0.00 | 0.00 | 0.00 | 73 | 1005.2 |
| 20260505062951 | 16 | 145 | 0.0 | 0.0 | 0.00 | 0.00 | 0.00 | 74 | 1005.2 |
| 20260505062448 | 16 | 152 | 0.0 | 0.0 | 0.00 | 0.00 | 0.00 | 73 | 1005.1 |
| 20260505061944 | 16 | 143 | 0.0 | 0.0 | 0.00 | 0.00 | 0.00 | 76 | 1005.2 |
| 20260505061443 | 16 | 196 | 0.0 | 0.0 | 0.00 | 0.00 | 0.00 | 76 | 1005.1 |
| 20260505060940 | 16 | 191 | 0.0 | 0.0 | 0.00 | 0.00 | 0.00 | 77 | 1005.4 |
| 20260505060437 | 16 | 140 | 0.0 | 0.0 | 0.00 | 0.00 | 0.00 | 77 | 1005.4 |
| 20260505055933 | 16 | 169 | 0.0 | 0.0 | 0.00 | 0.00 | 0.00 | 77 | 1005.3 |
| 20260505055429 | 16 | 183 | 0.0 | 0.0 | 0.00 | 0.00 | 0.00 | 77 | 1005.4 |
| 20260505054926 | 16 | 191 | 0.0 | 0.0 | 0.00 | 0.00 | 0.00 | 77 | 1005.5 |
| 20260505054424 | 16 | 140 | 0.0 | 0.0 | 0.00 | 0.00 | 0.00 | 76 | 1005.5 |
| 20260505053921 | 17 | 166 | 0.0 | 1.6 | 0.00 | 0.00 | 0.00 | 75 | 1005.4 |
| 20260505053418 | 17 | 212 | 0.0 | 1.6 | 0.00 | 0.00 | 0.00 | 73 | 1005.4 |
| 20260505052915 | 17 | 162 | 0.0 | 1.6 | 0.00 | 0.00 | 0.00 | 69 | 1005.6 |
| 20260505052412 | 17 | 142 | 0.0 | 1.6 | 0.00 | 0.00 | 0.00 | 67 | 1005.6 |
| 20260505051909 | 17 | 193 | 1.6 | 1.6 | 0.00 | 0.00 | 0.00 | 68 | 1005.8 |
| 20260505051406 | 17 | 192 | 0.0 | 0.0 | 0.00 | 0.00 | 0.00 | 67 | 1006.0 |
| 20260505050904 | 17 | 195 | 0.0 | 0.0 | 0.00 | 0.00 | 0.00 | 68 | 1005.9 |
| 20260505050403 | 17 | 195 | 0.0 | 1.6 | 0.00 | 0.00 | 0.00 | 68 | 1006.0 |
| 20260505041330 | 18 | 194 | 0.0 | 0.0 | 0.00 | 0.00 | 0.00 | 63 | 1005.8 |
| 20260505040827 | 18 | 95 | 0.0 | 1.6 | 0.00 | 0.00 | 0.00 | 64 | 1005.8 |
| 20260505040325 | 18 | 193 | 0.0 | 1.6 | 0.00 | 0.00 | 0.00 | 64 | 1005.9 |
| 20260505035821 | 18 | 205 | 0.0 | 1.6 | 0.00 | 0.00 | 0.00 | 64 | 1005.9 |
| 20260505035317 | 18 | 213 | 0.0 | 0.0 | 0.00 | 0.00 | 0.00 | 65 | 1005.7 |
| 20260505034814 | 18 | 256 | 0.0 | 1.6 | 0.00 | 0.00 | 0.00 | 65 | 1005.9 |
| 20260505034311 | 18 | 260 | 0.0 | 1.6 | 0.00 | 0.00 | 0.00 | 65 | 1005.8 |
| 20260505033808 | 18 | 178 | 0.0 | 1.6 | 0.00 | 0.00 | 0.00 | 66 | 1005.9 |
| 20260505033305 | 17 | 198 | 0.0 | 0.0 | 0.00 | 0.00 | 0.00 | 68 | 1005.8 |
| 20260505032803 | 17 | 174 | 0.0 | 1.6 | 0.00 | 0.00 | 0.00 | 69 | 1005.8 |
| 20260505032259 | 17 | 199 | 0.0 | 0.0 | 0.00 | 0.00 | 0.00 | 70 | 1005.8 |
| 20260505031756 | 17 | 172 | 0.0 | 0.0 | 0.00 | 0.00 | 0.00 | 71 | 1005.8 |
| 20260505031253 | 17 | 180 | 0.0 | 0.0 | 0.00 | 0.00 | 0.00 | 71 | 1005.9 |
| 20260505030750 | 17 | 200 | 0.0 | 0.0 | 0.00 | 0.00 | 0.00 | 72 | 1005.9 |
| 20260505030246 | 17 | 169 | 0.0 | 0.0 | 0.00 | 0.00 | 0.00 | 72 | 1005.7 |
| 20260505025741 | 17 | 174 | 0.0 | 0.0 | 0.00 | 0.00 | 0.00 | 72 | 1005.9 |
| 20260505025240 | 17 | 181 | 0.0 | 0.0 | 0.00 | 0.00 | 0.00 | 72 | 1005.8 |
| 20260505024738 | 17 | 180 | 0.0 | 0.0 | 0.00 | 0.00 | 0.00 | 71 | 1005.5 |
| 20260505024235 | 17 | 185 | 0.0 | 0.0 | 0.00 | 0.00 | 0.00 | 71 | 1005.6 |
| 20260505023732 | 17 | 165 | 0.0 | 0.0 | 0.00 | 0.00 | 0.00 | 71 | 1005.6 |
| 20260505023229 | 17 | 166 | 0.0 | 0.0 | 0.00 | 0.00 | 0.00 | 70 | 1005.8 |
| 20260505022726 | 17 | 185 | 0.0 | 0.0 | 0.00 | 0.00 | 0.00 | 69 | 1005.6 |
| 20260505022223 | 18 | 186 | 0.0 | 0.0 | 0.00 | 0.00 | 0.00 | 69 | 1005.7 |
| 20260505021720 | 17 | 196 | 0.0 | 0.0 | 0.00 | 0.00 | 0.00 | 69 | 1005.6 |
| 20260505021217 | 17 | 185 | 0.0 | 0.0 | 0.00 | 0.00 | 0.00 | 69 | 1005.6 |
| 20260505020713 | 17 | 180 | 0.0 | 0.0 | 0.00 | 0.00 | 0.00 | 69 | 1005.7 |
| 20260505020208 | 17 | 179 | 0.0 | 0.0 | 0.00 | 0.00 | 0.00 | 69 | 1005.6 |
| 20260505015706 | 17 | 179 | 0.0 | 0.0 | 0.00 | 0.00 | 0.00 | 69 | 1005.5 |
| 20260505015203 | 17 | 216 | 0.0 | 0.0 | 0.00 | 0.00 | 0.00 | 70 | 1005.5 |
| 20260505014659 | 17 | 217 | 0.0 | 0.0 | 0.00 | 0.00 | 0.00 | 70 | 1005.3 |
| 20260505014156 | 17 | 216 | 0.0 | 0.0 | 0.00 | 0.00 | 0.00 | 71 | 1005.3 |
| 20260505013654 | 17 | 185 | 0.0 | 0.0 | 0.00 | 0.00 | 0.00 | 71 | 1005.4 |
| 20260505013151 | 17 | 177 | 0.0 | 0.0 | 0.00 | 0.00 | 0.00 | 72 | 1005.2 |
| 20260505012649 | 17 | 236 | 0.0 | 0.0 | 0.00 | 0.00 | 0.00 | 70 | 1005.2 |
| 20260505012146 | 17 | 239 | 0.0 | 0.0 | 0.00 | 0.00 | 0.00 | 70 | 1005.2 |
| 20260505011641 | 17 | 153 | 0.0 | 0.0 | 0.00 | 0.00 | 0.00 | 69 | 1005.2 |
| 20260505011139 | 17 | 147 | 0.0 | 0.0 | 0.00 | 0.00 | 0.00 | 67 | 1005.2 |
| 20260505010639 | 17 | 147 | 0.0 | 0.0 | 0.00 | 0.00 | 0.00 | 67 | 1005.2 |
| 20260505010136 | 18 | 147 | 0.0 | 0.0 | 0.00 | 0.00 | 0.00 | 66 | 1005.1 |
| 20260505005632 | 18 | 146 | 0.0 | 0.0 | 0.00 | 0.00 | 0.00 | 65 | 1005.0 |
| 20260505005130 | 18 | 146 | 0.0 | 0.0 | 0.00 | 0.00 | 0.00 | 64 | 1005.2 |
| 20260505004627 | 18 | 146 | 0.0 | 0.0 | 0.00 | 0.00 | 0.00 | 63 | 1005.3 |
| 20260505004123 | 19 | 178 | 0.0 | 0.0 | 0.00 | 0.00 | 0.00 | 63 | 1005.2 |
| 20260505003620 | 19 | 159 | 0.0 | 0.0 | 0.00 | 0.00 | 0.00 | 62 | 1005.1 |
| 20260505003118 | 19 | 166 | 0.0 | 0.0 | 0.00 | 0.00 | 0.00 | 61 | 1005.0 |
| 20260505002614 | 20 | 191 | 0.0 | 0.0 | 0.00 | 0.00 | 0.00 | 59 | 1005.1 |
| 20260505002112 | 20 | 142 | 0.0 | 0.0 | 0.00 | 0.00 | 0.00 | 59 | 1005.0 |
| 20260505001609 | 20 | 202 | 0.0 | 0.0 | 0.00 | 0.00 | 0.00 | 57 | 1005.0 |
| 20260505001107 | 20 | 193 | 0.0 | 0.0 | 0.00 | 0.00 | 0.00 | 56 | 1005.1 |
| 20260505000603 | 20 | 191 | 0.0 | 0.0 | 0.00 | 0.00 | 0.00 | 55 | 1005.0 |
| 20260504235557 | 21 | 152 | 0.0 | 3.2 | 0.00 | 0.00 | 0.00 | 53 | 1005.1 |
| 20260504235054 | 21 | 190 | 0.0 | 0.0 | 0.00 | 0.00 | 0.00 | 53 | 1005.1 |
| 20260504234551 | 21 | 250 | 3.2 | 3.2 | 0.00 | 0.00 | 0.00 | 51 | 1005.3 |
| 20260504234049 | 21 | 212 | 0.0 | 4.8 | 0.00 | 0.00 | 0.00 | 51 | 1005.3 |
| 20260504233544 | 22 | 230 | 0.0 | 6.4 | 0.00 | 0.00 | 0.00 | 52 | 1005.2 |
| 20260504233041 | 22 | 221 | 0.0 | 3.2 | 0.00 | 0.00 | 0.00 | 52 | 1005.2 |
| 20260504232538 | 22 | 231 | 1.6 | 3.2 | 0.00 | 0.00 | 0.00 | 52 | 1005.1 |
| 20260504232036 | 22 | 230 | 0.0 | 0.0 | 0.00 | 0.00 | 0.00 | 52 | 1005.1 |
| 20260504231532 | 22 | 182 | 0.0 | 3.2 | 0.00 | 0.00 | 0.00 | 52 | 1005.3 |
| 20260504231028 | 22 | 140 | 0.0 | 0.0 | 0.00 | 0.00 | 0.00 | 51 | 1005.5 |
| 20260504230524 | 22 | 203 | 3.2 | 4.8 | 0.00 | 0.00 | 0.00 | 51 | 1005.6 |
| 20260504230023 | 22 | 193 | 0.0 | 1.6 | 0.00 | 0.00 | 0.00 | 53 | 1005.5 |
| 20260504225520 | 22 | 255 | 1.6 | 3.2 | 0.00 | 0.00 | 0.00 | 52 | 1005.6 |
| 20260504225017 | 22 | 96 | 0.0 | 1.6 | 0.00 | 0.00 | 0.00 | 51 | 1005.7 |
| 20260504224514 | 22 | 134 | 0.0 | 3.2 | 0.00 | 0.00 | 0.00 | 51 | 1005.9 |
| 20260504224011 | 22 | 222 | 1.6 | 1.6 | 0.00 | 0.00 | 0.00 | 51 | 1006.0 |
| 20260504223507 | 22 | 160 | 1.6 | 6.4 | 0.00 | 0.00 | 0.00 | 50 | 1005.9 |
| 20260504223003 | 22 | 220 | 1.6 | 1.6 | 0.00 | 0.00 | 0.00 | 51 | 1005.8 |
| 20260504222500 | 22 | 262 | 0.0 | 1.6 | 0.00 | 0.00 | 0.00 | 53 | 1006.0 |
| 20260504221958 | 22 | 196 | 0.0 | 4.8 | 0.00 | 0.00 | 0.00 | 51 | 1006.2 |
| 20260504221455 | 22 | 237 | 1.6 | 1.6 | 0.00 | 0.00 | 0.00 | 53 | 1006.0 |
| 20260504220952 | 22 | 124 | 3.2 | 3.2 | 0.00 | 0.00 | 0.00 | 53 | 1006.3 |
| 20260504220448 | 22 | 128 | 0.0 | 1.6 | 0.00 | 0.00 | 0.00 | 51 | 1006.2 |
| 20260504215945 | 23 | 89 | 3.2 | 3.2 | 0.00 | 0.00 | 0.00 | 49 | 1006.3 |
| 20260504215442 | 23 | 229 | 1.6 | 4.8 | 0.00 | 0.00 | 0.00 | 50 | 1006.2 |
| 20260504214938 | 23 | 188 | 1.6 | 4.8 | 0.00 | 0.00 | 0.00 | 49 | 1006.2 |
| 20260504214435 | 23 | 226 | 1.6 | 3.2 | 0.00 | 0.00 | 0.00 | 48 | 1006.5 |
| 20260504213932 | 23 | 230 | 4.8 | 11.3 | 0.00 | 0.00 | 0.00 | 46 | 1006.0 |
| 20260504213427 | 24 | 345 | 6.4 | 11.3 | 0.00 | 0.00 | 0.00 | 44 | 1006.2 |
| 20260504212925 | 24 | 237 | 1.6 | 4.8 | 0.00 | 0.00 | 0.00 | 45 | 1006.4 |
| 20260504212420 | 24 | 229 | 1.6 | 3.2 | 0.00 | 0.00 | 0.00 | 45 | 1006.3 |
| 20260504211919 | 24 | 246 | 1.6 | 4.8 | 0.00 | 0.00 | 0.00 | 44 | 1006.3 |
| 20260504211415 | 25 | 223 | 1.6 | 3.2 | 0.00 | 0.00 | 0.00 | 44 | 1006.3 |
| 20260504210912 | 25 | 255 | 3.2 | 3.2 | 0.00 | 0.00 | 0.00 | 43 | 1006.2 |
| 20260504210409 | 25 | 229 | 3.2 | 4.8 | 0.00 | 0.00 | 0.00 | 46 | 1006.0 |
| 20260504205906 | 24 | 206 | 3.2 | 12.9 | 0.00 | 0.00 | 0.00 | 44 | 1005.8 |
| 20260504205404 | 23 | 230 | 0.0 | 4.8 | 0.00 | 0.00 | 0.00 | 49 | 1006.3 |
| 20260504204902 | 23 | 95 | 1.6 | 3.2 | 0.00 | 0.00 | 0.00 | 48 | 1006.2 |
| 20260504204400 | 22 | 54 | 1.6 | 3.2 | 0.00 | 0.00 | 0.00 | 51 | 1006.5 |
| 20260504203859 | 22 | 122 | 4.8 | 6.4 | 0.00 | 0.00 | 0.00 | 52 | 1006.6 |
| 20260504203355 | 22 | 205 | 0.0 | 4.8 | 0.00 | 0.00 | 0.00 | 53 | 1006.7 |
| 20260504202852 | 22 | 86 | 1.6 | 6.4 | 0.00 | 0.00 | 0.00 | 53 | 1006.9 |
| 20260504202349 | 22 | 70 | 3.2 | 6.4 | 0.00 | 0.00 | 0.00 | 51 | 1006.8 |
| 20260504201845 | 23 | 2 | 1.6 | 3.2 | 0.00 | 0.00 | 0.00 | 50 | 1006.9 |
| 20260504201343 | 22 | 221 | 0.0 | 3.2 | 0.00 | 0.00 | 0.00 | 54 | 1007.1 |
| 20260504200840 | 22 | 181 | 1.6 | 6.4 | 0.00 | 0.00 | 0.00 | 51 | 1007.3 |
| 20260504200337 | 22 | 240 | 3.2 | 4.8 | 0.00 | 0.00 | 0.00 | 51 | 1007.1 |
| 20260504195833 | 22 | 80 | 4.8 | 9.7 | 0.00 | 0.00 | 0.00 | 47 | 1007.2 |
| 20260504195328 | 23 | 334 | 3.2 | 6.4 | 0.00 | 0.00 | 0.00 | 48 | 1007.6 |
| 20260504194826 | 25 | 22 | 6.4 | 14.5 | 0.00 | 0.00 | 0.00 | 44 | 1007.1 |
| 20260504194322 | 25 | 209 | 1.6 | 4.8 | 0.00 | 0.00 | 0.00 | 43 | 1007.1 |
| 20260504193818 | 25 | 148 | 0.0 | 3.2 | 0.00 | 0.00 | 0.00 | 46 | 1007.1 |
| 20260504193315 | 25 | 165 | 6.4 | 14.5 | 0.00 | 0.00 | 0.00 | 43 | 1007.2 |
| 20260504192814 | 24 | 217 | 1.6 | 4.8 | 0.00 | 0.00 | 0.00 | 47 | 1007.1 |
| 20260504192311 | 24 | 88 | 3.2 | 4.8 | 0.00 | 0.00 | 0.00 | 47 | 1007.0 |
| 20260504191810 | 23 | 281 | 3.2 | 3.2 | 0.00 | 0.00 | 0.00 | 51 | 1007.1 |
| 20260504191307 | 23 | 189 | 1.6 | 4.8 | 0.00 | 0.00 | 0.00 | 47 | 1007.0 |
| 20260504190802 | 24 | 224 | 4.8 | 4.8 | 0.00 | 0.00 | 0.00 | 46 | 1006.9 |
| 20260504190259 | 23 | 204 | 3.2 | 4.8 | 0.00 | 0.00 | 0.00 | 47 | 1006.7 |
| 20260504185755 | 24 | 183 | 0.0 | 6.4 | 0.00 | 0.00 | 0.00 | 47 | 1006.8 |
| 20260504185252 | 24 | 206 | 1.6 | 1.6 | 0.00 | 0.00 | 0.00 | 47 | 1007.2 |
| 20260504184748 | 25 | 260 | 3.2 | 4.8 | 0.00 | 0.00 | 0.00 | 43 | 1006.9 |
| 20260504184244 | 24 | 87 | 3.2 | 4.8 | 0.00 | 0.00 | 0.00 | 45 | 1007.0 |
| 20260504183740 | 25 | 220 | 0.0 | 6.4 | 0.00 | 0.00 | 0.00 | 44 | 1007.0 |
| 20260504183237 | 25 | 223 | 1.6 | 4.8 | 0.00 | 0.00 | 0.00 | 46 | 1006.9 |
| 20260504182735 | 24 | 206 | 1.6 | 6.4 | 0.00 | 0.00 | 0.00 | 49 | 1007.1 |
| 20260504182232 | 23 | 136 | 1.6 | 3.2 | 0.00 | 0.00 | 0.00 | 47 | 1007.0 |
| 20260504181730 | 23 | 202 | 0.0 | 1.6 | 0.00 | 0.00 | 0.00 | 49 | 1007.1 |
| 20260504181227 | 24 | 163 | 3.2 | 4.8 | 0.00 | 0.00 | 0.00 | 45 | 1007.0 |
| 20260504180726 | 25 | 189 | 1.6 | 4.8 | 0.00 | 0.00 | 0.00 | 44 | 1007.1 |
| 20260504180224 | 24 | 200 | 1.6 | 1.6 | 0.00 | 0.00 | 0.00 | 50 | 1007.2 |
| 20260504175722 | 23 | 134 | 3.2 | 9.7 | 0.00 | 0.00 | 0.00 | 48 | 1007.1 |
| 20260504175218 | 23 | 304 | 1.6 | 6.4 | 0.00 | 0.00 | 0.00 | 48 | 1007.3 |
| 20260504174716 | 24 | 232 | 0.0 | 3.2 | 0.00 | 0.00 | 0.00 | 46 | 1007.5 |
| 20260504174214 | 23 | 216 | 1.6 | 3.2 | 0.00 | 0.00 | 0.00 | 47 | 1007.4 |
| 20260504173710 | 23 | 234 | 1.6 | 6.4 | 0.00 | 0.00 | 0.00 | 46 | 1007.3 |
| 20260504173207 | 23 | 98 | 1.6 | 4.8 | 0.00 | 0.00 | 0.00 | 48 | 1007.4 |
| 20260504172704 | 23 | 20 | 1.6 | 3.2 | 0.00 | 0.00 | 0.00 | 48 | 1007.4 |
| 20260504172200 | 23 | 96 | 3.2 | 4.8 | 0.00 | 0.00 | 0.00 | 46 | 1007.4 |
| 20260504171657 | 23 | 355 | 1.6 | 4.8 | 0.00 | 0.00 | 0.00 | 45 | 1007.6 |
| 20260504171154 | 23 | 244 | 3.2 | 11.3 | 0.00 | 0.00 | 0.00 | 48 | 1007.5 |
| 20260504170650 | 23 | 151 | 1.6 | 3.2 | 0.00 | 0.00 | 0.00 | 48 | 1007.7 |
| 20260504170148 | 23 | 166 | 0.0 | 3.2 | 0.00 | 0.00 | 0.00 | 51 | 1007.6 |